Sparta, TN

2:44 PM CST on December 10, 2016 (GMT -0600)
Upper Cumberland Regional

Weather History for KSRB - February, 2013

Change the Weather History Date:

Friday, February 1, 2013

  Actual Average (KCSV) Record (KCSV)
Temperature  
Mean Temperature 22 °F -  
Max Temperature 28 °F 47 °F 67 °F (1988)
Min Temperature 15 °F 29 °F 0 °F (1971)
Degree Days  
Heating Degree Days 44    
Moisture  
Dew Point 16 °F    
Average Humidity 80    
Maximum Humidity 100    
Minimum Humidity 64    
Precipitation  
Precipitation 0.00 in - - ()
Sea Level Pressure  
Sea Level Pressure 30.35 in    
Wind  
Wind Speed 7 mph (WNW)    
Max Wind Speed 14 mph    
Max Gust Speed -    
Visibility 10 miles    
Events      
Averages and records for this station are not official NWS values.
T = Trace of Precipitation, MM = Missing Value Source: NWS Daily Summary

Daily Weather History Graph

Daily Weather History Graph

Search for Another Location

Airport or City:

Trip Planner

Search our weather history database for the weather conditions in past years. The results will help you decide how hot, cold, wet, or windy it might be!

Date:

Astronomy

Feb. 01, 2013 Rise Set
Actual Time 6:42 AM CST 5:09 PM CST
Civil Twilight 6:15 AM CST 5:36 PM CST
Nautical Twilight 5:45 AM CST 6:06 PM CST
Astronomical Twilight 5:14 AM CST 6:37 PM CST
Moon 11:02 PM CST (2/1) 9:28 AM CST (2/1)
Length of Visible Light 11h 20m
Length of Day
10h 26m
Waning Gibbous, 70% of the Moon is Illuminated
Feb 1
Waning Gibbous
Feb 3
Last Quarter
Feb 10
New
Feb 17
First Quarter
Feb 25
Full

Hourly Weather History & Observations

Time (CST) Temp. Windchill Dew Point Humidity Pressure Visibility Wind Dir Wind Speed Gust Speed Precip Events Conditions
12:15 AM 28.4 °F 19.1 °F 28.4 °F 100% 30.13 in 1.2 mi WNW 10.4 mph - N/A   Overcast
12:35 AM 28.4 °F 18.5 °F 28.4 °F 100% 30.15 in 2.0 mi NNW 11.5 mph - N/A   Overcast
12:55 AM 26.6 °F 15.7 °F 26.6 °F 100% 30.18 in 10.0 mi NNW 12.7 mph - N/A   Overcast
1:15 AM 26.6 °F 16.2 °F 24.8 °F 93% 30.19 in 10.0 mi NW 11.5 mph - N/A   Overcast
1:35 AM 26.6 °F 16.8 °F 24.8 °F 93% 30.20 in 10.0 mi NW 10.4 mph - N/A   Mostly Cloudy
1:55 AM 24.8 °F 12.9 °F 23.0 °F 93% 30.21 in 10.0 mi NNW 13.8 mph - N/A   Mostly Cloudy
2:15 AM 23.0 °F 10.6 °F 19.4 °F 86% 30.22 in 10.0 mi NW 13.8 mph - N/A   Mostly Cloudy
2:35 AM 21.2 °F 10.9 °F 17.6 °F 86% 30.23 in 10.0 mi NW 9.2 mph - N/A   Scattered Clouds
2:55 AM 21.2 °F 11.7 °F 19.4 °F 93% 30.25 in 10.0 mi North 8.1 mph - N/A   Overcast
3:15 AM 19.4 °F 8.6 °F 17.6 °F 93% 30.26 in 10.0 mi NNW 9.2 mph - N/A   Mostly Cloudy
3:35 AM 17.6 °F 5.7 °F 12.2 °F 79% 30.27 in 10.0 mi NNW 10.4 mph - N/A   Mostly Cloudy
3:55 AM 17.6 °F 7.3 °F 12.2 °F 79% 30.28 in 10.0 mi NNW 8.1 mph - N/A   Scattered Clouds
4:15 AM 17.6 °F 6.4 °F 12.2 °F 79% 30.29 in 10.0 mi NNW 9.2 mph - N/A   Scattered Clouds
4:35 AM 15.8 °F 5.1 °F 10.4 °F 79% 30.30 in 10.0 mi NNW 8.1 mph - N/A   Partly Cloudy
4:55 AM 15.8 °F 4.2 °F 10.4 °F 79% 30.31 in 10.0 mi NNW 9.2 mph - N/A   Clear
5:15 AM 15.8 °F 8.6 °F 10.4 °F 79% 30.32 in 10.0 mi NW 4.6 mph - N/A   Mostly Cloudy
5:35 AM 15.8 °F 6.1 °F 10.4 °F 79% 30.32 in 10.0 mi NW 6.9 mph - N/A   Mostly Cloudy
5:55 AM 15.8 °F 8.6 °F 12.2 °F 86% 30.33 in 10.0 mi WNW 4.6 mph - N/A   Mostly Cloudy
6:15 AM 15.8 °F 8.6 °F 12.2 °F 86% 30.34 in 10.0 mi NW 4.6 mph - N/A   Overcast
6:35 AM 15.8 °F 10.2 °F 10.4 °F 79% 30.36 in 10.0 mi NW 3.5 mph - N/A   Overcast
6:55 AM 15.8 °F - 12.2 °F 86% 30.36 in 10.0 mi Calm Calm - N/A   Overcast
7:15 AM 15.8 °F 8.6 °F 12.2 °F 86% 30.37 in 10.0 mi NW 4.6 mph - N/A   Overcast
7:35 AM 17.6 °F 10.7 °F 12.2 °F 79% 30.38 in 10.0 mi WNW 4.6 mph - N/A   Overcast
7:55 AM 17.6 °F 9.3 °F 12.2 °F 79% 30.39 in 8.0 mi Variable 5.8 mph - N/A   Overcast
8:15 AM 15.8 °F 5.1 °F 10.4 °F 79% 30.40 in 10.0 mi NW 8.1 mph - N/A   Overcast
8:35 AM 17.6 °F 7.3 °F 10.4 °F 73% 30.40 in 10.0 mi WNW 8.1 mph - N/A   Overcast
8:55 AM 17.6 °F 8.2 °F 10.4 °F 73% 30.42 in 10.0 mi NW 6.9 mph - N/A   Overcast
9:15 AM 17.6 °F 9.3 °F 10.4 °F 73% 30.43 in 10.0 mi NW 5.8 mph - N/A   Scattered Clouds
9:35 AM 17.6 °F 12.3 °F 10.4 °F 73% 30.42 in 10.0 mi North 3.5 mph - N/A   Partly Cloudy
9:55 AM 19.4 °F 10.4 °F 12.2 °F 74% 30.43 in 10.0 mi NNW 6.9 mph - N/A   Mostly Cloudy
10:15 AM 19.4 °F 12.8 °F 10.4 °F 68% 30.44 in 10.0 mi WNW 4.6 mph - N/A   Scattered Clouds
10:35 AM 19.4 °F 11.5 °F 10.4 °F 68% 30.45 in 10.0 mi Variable 5.8 mph - N/A   Partly Cloudy
10:55 AM 21.2 °F 12.6 °F 14.0 °F 74% 30.45 in 10.0 mi West 6.9 mph - N/A   Mostly Cloudy
11:15 AM 23.0 °F - 15.8 °F 74% 30.44 in 10.0 mi Calm Calm - N/A   Mostly Cloudy
11:55 AM 21.2 °F 12.6 °F 14.0 °F 74% 30.43 in 10.0 mi WNW 6.9 mph - N/A   Mostly Cloudy
12:15 PM 24.8 °F 17.9 °F 15.8 °F 69% 30.41 in 10.0 mi WSW 5.8 mph - N/A   Partly Cloudy
12:35 PM 21.2 °F 14.9 °F 15.8 °F 80% 30.41 in 10.0 mi West 4.6 mph - N/A   Partly Cloudy
12:55 PM 21.2 °F 16.4 °F 15.8 °F 80% 30.40 in 10.0 mi NNW 3.5 mph - N/A   Partly Cloudy
1:15 PM 23.0 °F 17.0 °F 14.0 °F 68% 30.39 in 10.0 mi NW 4.6 mph - N/A   Clear
1:35 PM 24.8 °F 16.9 °F 15.8 °F 69% 30.40 in 10.0 mi West 6.9 mph - N/A   Clear
1:55 PM 24.8 °F 20.5 °F 15.8 °F 69% 30.39 in 10.0 mi Variable 3.5 mph - N/A   Clear
2:15 PM 24.8 °F 19.1 °F 17.6 °F 74% 30.39 in 10.0 mi West 4.6 mph - N/A   Clear
2:35 PM 24.8 °F 17.9 °F 15.8 °F 69% 30.39 in 10.0 mi West 5.8 mph - N/A   Clear
2:55 PM 26.6 °F 19.1 °F 15.8 °F 64% 30.38 in 10.0 mi West 6.9 mph - N/A   Clear
3:15 PM 24.8 °F - 15.8 °F 69% 30.38 in 10.0 mi Calm Calm - N/A   Clear
3:35 PM 24.8 °F 19.1 °F 15.8 °F 69% 30.37 in 10.0 mi West 4.6 mph - N/A   Clear
3:55 PM 24.8 °F 16.9 °F 14.0 °F 64% 30.38 in 10.0 mi WSW 6.9 mph - N/A   Clear
4:15 PM 24.8 °F 19.1 °F 15.8 °F 69% 30.38 in 10.0 mi Variable 4.6 mph - N/A   Clear
4:35 PM 24.8 °F 16.9 °F 14.0 °F 64% 30.38 in 10.0 mi WNW 6.9 mph - N/A   Clear
4:55 PM 24.8 °F 20.5 °F 14.0 °F 64% 30.38 in 10.0 mi WNW 3.5 mph - N/A   Clear
5:15 PM 23.0 °F 18.4 °F 14.0 °F 68% 30.38 in 10.0 mi WNW 3.5 mph - N/A   Clear
5:35 PM 23.0 °F - 14.0 °F 68% 30.38 in 10.0 mi Calm Calm - N/A   Clear
5:55 PM 21.2 °F - 14.0 °F 74% 30.38 in 10.0 mi Calm Calm - N/A   Clear
6:15 PM 21.2 °F - 14.0 °F 74% 30.39 in 10.0 mi Calm Calm - N/A   Clear
6:35 PM 19.4 °F - 17.6 °F 93% 30.39 in 10.0 mi Calm Calm - N/A   Clear
6:55 PM 21.2 °F - 17.6 °F 86% 30.38 in 10.0 mi Calm Calm - N/A   Clear
7:15 PM 21.2 °F - 17.6 °F 86% 30.39 in 10.0 mi Calm Calm - N/A   Clear
7:35 PM 21.2 °F - 17.6 °F 86% 30.39 in 10.0 mi Calm Calm - N/A   Clear
7:55 PM 19.4 °F - 17.6 °F 93% 30.37 in 10.0 mi Calm Calm - N/A   Clear
8:15 PM 19.4 °F 14.3 °F 15.8 °F 86% 30.37 in 10.0 mi West 3.5 mph - N/A   Clear
8:35 PM 19.4 °F - 17.6 °F 93% 30.38 in 10.0 mi Calm Calm - N/A   Clear
8:55 PM 19.4 °F - 17.6 °F 93% 30.36 in 10.0 mi Calm Calm - N/A   Clear
9:15 PM 19.4 °F - 17.6 °F 93% 30.37 in 10.0 mi Calm Calm - N/A   Clear
9:35 PM 19.4 °F 14.3 °F 17.6 °F 93% 30.36 in 10.0 mi South 3.5 mph - N/A   Clear
9:55 PM 19.4 °F 12.8 °F 17.6 °F 93% 30.34 in 10.0 mi SE 4.6 mph - N/A   Clear
10:15 PM 21.2 °F 14.9 °F 17.6 °F 86% 30.33 in 10.0 mi SSE 4.6 mph - N/A   Clear
10:35 PM 21.2 °F 16.4 °F 17.6 °F 86% 30.34 in 10.0 mi SSE 3.5 mph - N/A   Clear
10:55 PM 21.2 °F - 17.6 °F 86% 30.33 in 10.0 mi Calm Calm - N/A   Clear
11:15 PM 21.2 °F 16.4 °F 17.6 °F 86% 30.33 in 10.0 mi South 3.5 mph - N/A   Clear
11:35 PM 21.2 °F - 17.6 °F 86% 30.33 in 10.0 mi Calm Calm - N/A   Clear
11:55 PM 21.2 °F 14.9 °F 17.6 °F 86% 30.32 in 10.0 mi South 4.6 mph - N/A   Clear